Madison, SD

6:59 AM CST on December 15, 2019 (GMT -0600)
Madison Municipal

Weather History for KMDS - October, 2019

Change the Weather History Date:

Sunday, October 13, 2019

  Actual Average Record
Temperature  
Mean Temperature 34 °F -  
Max Temperature 37 °F 61 °F 69 °F (2015)
Min Temperature 32 °F 37 °F 28 °F (2013)
Degree Days  
Heating Degree Days 30    
Moisture  
Dew Point 32 °F    
Average Humidity 95    
Maximum Humidity 100    
Minimum Humidity 81    
Precipitation  
Precipitation 0.00 in - - ()
Sea Level Pressure  
Sea Level Pressure 29.87 in    
Wind  
Wind Speed 13 mph ()    
Max Wind Speed 18 mph    
Max Gust Speed 25 mph    
Visibility 10.0 miles    
Events      
Averages and records for this station are not official NWS values.
T = Trace of Precipitation, MM = Missing Value Source: Averaged Metar Reports

Daily Weather History Graph

Daily Weather History Graph

Search for Another Location

Airport or City:

Astronomy

Oct. 13, 2019 Rise Set
Actual Time 7:40 AM CDT 6:48 PM CDT
Civil Twilight 7:11 AM CDT 7:17 PM CDT
Nautical Twilight 6:37 AM CDT 7:50 PM CDT
Astronomical Twilight 6:04 AM CDT 8:24 PM CDT
Moon 7:13 PM CDT (10/13) 7:12 AM CDT (10/13)
Length of Visible Light 12h 05m
Length of Day
11h 07m
Full, 100% of the Moon is Illuminated
Oct 13
Full
Oct 13
Full
Oct 21
Last Quarter
Oct 27
New
Nov 4
First Quarter

Hourly Weather History & Observations

Time (CDT) Temp. Windchill Dew Point Humidity Pressure Visibility Wind Dir Wind Speed Gust Speed Precip Events Conditions
12:15 AM 32.0 °F 21.6 °F 32.0 °F 100% 29.77 in 10.0 mi WNW 15.0 mph - N/A   Overcast
12:35 AM 32.0 °F 20.5 °F 32.0 °F 100% 29.77 in 10.0 mi WNW 18.4 mph 23.0 mph N/A   Overcast
12:40 AM 32.0 °F 20.8 °F 32.0 °F 100% 29.77 in 10.0 mi WNW 17.3 mph 23.0 mph N/A   Overcast
12:55 AM 32.0 °F 21.6 °F 32.0 °F 100% 29.77 in 10.0 mi WNW 15.0 mph 20.7 mph N/A   Overcast
1:15 AM 32.0 °F 20.5 °F 32.0 °F 100% 29.77 in 10.0 mi WNW 18.4 mph 25.3 mph N/A   Overcast
1:20 AM 32.0 °F 21.2 °F 32.0 °F 100% 29.77 in 10.0 mi WNW 16.1 mph 25.3 mph N/A   Overcast
1:35 AM 32.0 °F 21.2 °F 32.0 °F 100% 29.77 in 10.0 mi WNW 16.1 mph - N/A   Overcast
1:55 AM 32.0 °F 23.0 °F 32.0 °F 100% 29.77 in 10.0 mi WNW 11.5 mph 18.4 mph N/A   Overcast
2:15 AM 32.0 °F 22.1 °F 32.0 °F 100% 29.77 in 10.0 mi West 13.8 mph 19.6 mph N/A   Overcast
2:20 AM 32.0 °F 22.5 °F 32.0 °F 100% 29.78 in 10.0 mi West 12.7 mph 19.6 mph N/A   Overcast
2:35 AM 32.0 °F 22.5 °F 32.0 °F 100% 29.77 in 10.0 mi West 12.7 mph 19.6 mph N/A   Overcast
2:40 AM 32.0 °F 22.5 °F 32.0 °F 100% 29.77 in 10.0 mi West 12.7 mph 19.6 mph N/A   Overcast
2:55 AM 32.0 °F 22.5 °F 32.0 °F 100% 29.77 in 10.0 mi West 12.7 mph 19.6 mph N/A   Overcast
3:15 AM 32.0 °F 21.2 °F 32.0 °F 100% 29.78 in 10.0 mi West 16.1 mph 20.7 mph N/A   Overcast
3:35 AM 32.0 °F 22.1 °F 32.0 °F 100% 29.78 in 10.0 mi WNW 13.8 mph 19.6 mph N/A   Overcast
3:55 AM 32.0 °F 21.2 °F 32.0 °F 100% 29.78 in 10.0 mi WNW 16.1 mph 20.7 mph N/A   Overcast
4:00 AM 32.0 °F 21.2 °F 32.0 °F 100% 29.78 in 10.0 mi WNW 16.1 mph 20.7 mph N/A   Overcast
4:15 AM 32.0 °F 21.2 °F 32.0 °F 100% 29.79 in 10.0 mi WNW 16.1 mph 21.9 mph N/A   Overcast
4:35 AM 32.0 °F 21.2 °F 32.0 °F 100% 29.79 in 10.0 mi WNW 16.1 mph 21.9 mph N/A   Overcast
4:40 AM 32.0 °F 20.8 °F 32.0 °F 100% 29.79 in 10.0 mi WNW 17.3 mph 21.9 mph N/A   Overcast
4:55 AM 32.0 °F 21.6 °F 32.0 °F 100% 29.79 in 10.0 mi WNW 15.0 mph 19.6 mph N/A   Overcast
5:00 AM 32.0 °F 21.2 °F 32.0 °F 100% 29.79 in 10.0 mi WNW 16.1 mph 19.6 mph N/A   Overcast
5:15 AM 32.0 °F 21.6 °F 32.0 °F 100% 29.79 in 10.0 mi WNW 15.0 mph 20.7 mph N/A   Overcast
5:35 AM 32.0 °F 22.1 °F 32.0 °F 100% 29.79 in 10.0 mi WNW 13.8 mph 19.6 mph N/A   Overcast
5:40 AM 32.0 °F 21.2 °F 32.0 °F 100% 29.79 in 10.0 mi WNW 16.1 mph 19.6 mph N/A   Overcast
5:55 AM 32.0 °F 22.1 °F 32.0 °F 100% 29.80 in 10.0 mi WNW 13.8 mph - N/A   Overcast
6:00 AM 32.0 °F 22.1 °F 32.0 °F 100% 29.80 in 10.0 mi WNW 13.8 mph - N/A   Overcast
6:15 AM 32.0 °F 22.5 °F 32.0 °F 100% 29.80 in 10.0 mi WNW 12.7 mph 18.4 mph N/A   Overcast
6:35 AM 32.0 °F 21.6 °F 32.0 °F 100% 29.80 in 10.0 mi WNW 15.0 mph 20.7 mph N/A   Overcast
6:55 AM 32.0 °F 22.5 °F 32.0 °F 100% 29.80 in 10.0 mi WNW 12.7 mph - N/A   Overcast
7:15 AM 32.0 °F 23.0 °F 32.0 °F 100% 29.80 in 10.0 mi WNW 11.5 mph - N/A   Overcast
7:35 AM 32.0 °F 23.0 °F 32.0 °F 100% 29.80 in 10.0 mi WNW 11.5 mph 17.3 mph N/A   Overcast
7:40 AM 32.0 °F 23.0 °F 32.0 °F 100% 29.80 in 10.0 mi WNW 11.5 mph - N/A   Overcast
7:55 AM 32.0 °F 24.2 °F 32.0 °F 100% 29.81 in 10.0 mi West 9.2 mph - N/A   Overcast
8:00 AM 32.0 °F 24.2 °F 32.0 °F 100% 29.81 in 10.0 mi West 9.2 mph - N/A   Overcast
8:15 AM 32.0 °F 23.6 °F 32.0 °F 100% 29.81 in 10.0 mi West 10.4 mph - N/A   Overcast
8:35 AM 32.0 °F 23.0 °F 32.0 °F 100% 29.82 in 10.0 mi WNW 11.5 mph - N/A   Overcast
8:40 AM 32.0 °F 22.5 °F 32.0 °F 100% 29.82 in 10.0 mi WNW 12.7 mph - N/A   Overcast
8:55 AM 32.0 °F 21.6 °F 32.0 °F 100% 29.83 in 10.0 mi WNW 15.0 mph 20.7 mph N/A   Mostly Cloudy
9:15 AM 32.0 °F 23.0 °F 32.0 °F 100% 29.83 in 10.0 mi WNW 11.5 mph 19.6 mph N/A   Mostly Cloudy
9:35 AM 32.0 °F 21.2 °F 32.0 °F 100% 29.83 in 10.0 mi NW 16.1 mph 20.7 mph N/A   Mostly Cloudy
9:40 AM 32.0 °F 21.2 °F 32.0 °F 100% 29.84 in 10.0 mi WNW 16.1 mph 20.7 mph N/A   Mostly Cloudy
9:55 AM 32.0 °F 21.2 °F 32.0 °F 100% 29.84 in 10.0 mi NW 16.1 mph - N/A   Overcast
10:15 AM 32.0 °F 21.2 °F 32.0 °F 100% 29.85 in 10.0 mi NW 16.1 mph - N/A   Overcast
10:35 AM 32.0 °F 20.8 °F 32.0 °F 100% 29.86 in 10.0 mi NW 17.3 mph 21.9 mph N/A   Overcast
10:40 AM 32.0 °F 20.5 °F 32.0 °F 100% 29.86 in 10.0 mi NW 18.4 mph - N/A   Overcast
10:55 AM 32.0 °F 20.8 °F 32.0 °F 100% 29.87 in 10.0 mi NW 17.3 mph - N/A   Overcast
11:00 AM 32.0 °F 20.8 °F 32.0 °F 100% 29.86 in 10.0 mi WNW 17.3 mph - N/A   Overcast
11:15 AM 32.0 °F 21.6 °F 32.0 °F 100% 29.87 in 10.0 mi NW 15.0 mph 24.2 mph N/A   Overcast
11:20 AM 32.0 °F 22.5 °F 32.0 °F 100% 29.87 in 10.0 mi NW 12.7 mph 24.2 mph N/A   Overcast
11:35 AM 32.0 °F 21.2 °F 32.0 °F 100% 29.88 in 10.0 mi NW 16.1 mph 23.0 mph N/A   Overcast
11:40 AM 33.8 °F 23.5 °F 32.0 °F 93% 29.88 in 10.0 mi NW 16.1 mph 23.0 mph N/A   Overcast
11:55 AM 33.8 °F 23.2 °F 32.0 °F 93% 29.88 in 10.0 mi NW 17.3 mph 24.2 mph N/A   Overcast
12:00 PM 33.8 °F 23.2 °F 32.0 °F 93% 29.88 in 10.0 mi WNW 17.3 mph - N/A   Overcast
12:15 PM 33.8 °F 23.5 °F 32.0 °F 93% 29.89 in 10.0 mi NW 16.1 mph 19.6 mph N/A   Overcast
12:20 PM 33.8 °F 23.9 °F 32.0 °F 93% 29.89 in 10.0 mi WNW 15.0 mph 19.6 mph N/A   Overcast
12:35 PM 33.8 °F 23.2 °F 32.0 °F 93% 29.89 in 10.0 mi NW 17.3 mph 20.7 mph N/A   Overcast
12:55 PM 33.8 °F 23.2 °F 32.0 °F 93% 29.90 in 10.0 mi NW 17.3 mph - N/A   Overcast
1:00 PM 33.8 °F 24.3 °F 32.0 °F 93% 29.90 in 10.0 mi WNW 13.8 mph - N/A   Overcast
1:15 PM 35.6 °F 25.9 °F 32.0 °F 87% 29.90 in 10.0 mi WNW 16.1 mph - N/A   Overcast
1:20 PM 35.6 °F 27.1 °F 32.0 °F 87% 29.90 in 10.0 mi NW 12.7 mph - N/A   Overcast
1:35 PM 35.6 °F 26.2 °F 32.0 °F 87% 29.90 in 10.0 mi NW 15.0 mph 21.9 mph N/A   Overcast
1:55 PM 35.6 °F 25.5 °F 32.0 °F 87% 29.90 in 10.0 mi WNW 17.3 mph - N/A   Overcast
2:00 PM 35.6 °F 26.6 °F 32.0 °F 87% 29.90 in 10.0 mi NW 13.8 mph - N/A   Overcast
2:15 PM 37.4 °F 28.2 °F 32.0 °F 81% 29.90 in 10.0 mi NW 16.1 mph - N/A   Mostly Cloudy
2:20 PM 37.4 °F 27.5 °F 32.0 °F 81% 29.90 in 10.0 mi NW 18.4 mph - N/A   Mostly Cloudy
2:35 PM 37.4 °F 28.9 °F 32.0 °F 81% 29.90 in 10.0 mi NW 13.8 mph - N/A   Scattered Clouds
2:55 PM 37.4 °F 28.2 °F 32.0 °F 81% 29.90 in 10.0 mi NW 16.1 mph 19.6 mph N/A   Mostly Cloudy
3:00 PM 37.4 °F 28.5 °F 32.0 °F 81% 29.90 in 10.0 mi NW 15.0 mph - N/A   Mostly Cloudy
3:15 PM 37.4 °F 27.8 °F 32.0 °F 81% 29.90 in 10.0 mi WNW 17.3 mph - N/A   Overcast
3:35 PM 37.4 °F 28.9 °F 32.0 °F 81% 29.91 in 10.0 mi NW 13.8 mph - N/A   Overcast
3:40 PM 37.4 °F 28.9 °F 32.0 °F 81% 29.91 in 10.0 mi WNW 13.8 mph - N/A   Overcast
3:55 PM 37.4 °F 28.5 °F 32.0 °F 81% 29.91 in 10.0 mi WNW 15.0 mph 19.6 mph N/A   Overcast
4:15 PM 37.4 °F 28.9 °F 32.0 °F 81% 29.91 in 10.0 mi NW 13.8 mph 19.6 mph N/A   Overcast
4:35 PM 37.4 °F 28.9 °F 32.0 °F 81% 29.91 in 10.0 mi NW 13.8 mph 21.9 mph N/A   Overcast
4:55 PM 37.4 °F 29.3 °F 32.0 °F 81% 29.92 in 10.0 mi NW 12.7 mph 20.7 mph N/A   Overcast
5:00 PM 37.4 °F 29.3 °F 32.0 °F 81% 29.92 in 10.0 mi NW 12.7 mph - N/A   Overcast
5:15 PM 37.4 °F 28.9 °F 32.0 °F 81% 29.92 in 10.0 mi NW 13.8 mph 18.4 mph N/A   Overcast
5:20 PM 37.4 °F 28.5 °F 32.0 °F 81% 29.92 in 10.0 mi NW 15.0 mph 18.4 mph N/A   Overcast
5:55 PM 37.4 °F 29.3 °F 32.0 °F 81% 29.94 in 10.0 mi NW 12.7 mph - N/A   Overcast
6:00 PM 37.4 °F 30.3 °F 32.0 °F 81% 29.94 in 10.0 mi NW 10.4 mph - N/A   Overcast
6:15 PM 37.4 °F 30.3 °F 32.0 °F 81% 29.94 in 10.0 mi NW 10.4 mph - N/A   Overcast
6:20 PM 37.4 °F 30.3 °F 32.0 °F 81% 29.94 in 10.0 mi NW 10.4 mph - N/A   Overcast
6:35 PM 37.4 °F 30.8 °F 32.0 °F 81% 29.94 in 10.0 mi NW 9.2 mph - N/A   Overcast
6:55 PM 35.6 °F 29.2 °F 32.0 °F 87% 29.95 in 10.0 mi WNW 8.1 mph - N/A   Overcast
7:00 PM 35.6 °F 29.9 °F 32.0 °F 87% 29.95 in 10.0 mi NW 6.9 mph - N/A   Overcast
7:15 PM 35.6 °F 31.7 °F 33.8 °F 93% 29.95 in 10.0 mi WNW 4.6 mph - N/A   Overcast
7:35 PM 35.6 °F 29.9 °F 33.8 °F 93% 29.96 in 10.0 mi NW 6.9 mph - N/A   Overcast
7:40 PM 35.6 °F 30.7 °F 35.6 °F 100% 29.96 in 10.0 mi NW 5.8 mph - N/A   Overcast
7:55 PM 35.6 °F 29.9 °F 35.6 °F 100% 29.96 in 10.0 mi WNW 6.9 mph - N/A   Overcast
8:00 PM 35.6 °F 29.9 °F 35.6 °F 100% 29.97 in 10.0 mi WNW 6.9 mph - N/A   Overcast
8:15 PM 35.6 °F 30.7 °F 35.6 °F 100% 29.97 in 10.0 mi WNW 5.8 mph - N/A   Overcast
8:20 PM 35.6 °F 30.7 °F 35.6 °F 100% 29.97 in 10.0 mi WNW 5.8 mph - N/A   Overcast
8:35 PM 35.6 °F 29.9 °F 35.6 °F 100% 29.97 in 10.0 mi NW 6.9 mph - N/A   Overcast
8:40 PM 35.6 °F 30.7 °F 35.6 °F 100% 29.97 in 10.0 mi NW 5.8 mph - N/A   Overcast
8:55 PM 35.6 °F 29.9 °F 35.6 °F 100% 29.98 in 10.0 mi NNW 6.9 mph - N/A   Overcast
9:15 PM 35.6 °F 29.9 °F 35.6 °F 100% 29.97 in 10.0 mi North 6.9 mph - N/A   Overcast
9:20 PM 35.6 °F 30.7 °F 35.6 °F 100% 29.97 in 10.0 mi North 5.8 mph - N/A   Overcast
9:35 PM 33.8 °F 27.7 °F 33.8 °F 100% 29.97 in 10.0 mi North 6.9 mph - N/A   Overcast
9:40 PM 33.8 °F 29.6 °F 33.8 °F 100% 29.97 in 10.0 mi North 4.6 mph - N/A   Overcast
9:55 PM 32.0 °F 24.2 °F 32.0 °F 100% 29.97 in 10.0 mi North 9.2 mph - N/A   Mostly Cloudy
10:15 PM 32.0 °F 26.4 °F 32.0 °F 100% 29.97 in 10.0 mi North 5.8 mph - N/A   Partly Cloudy
10:20 PM 32.0 °F 26.4 °F 32.0 °F 100% 29.97 in 10.0 mi North 5.8 mph - N/A   Clear
10:35 PM 32.0 °F 26.4 °F 32.0 °F 100% 29.97 in 10.0 mi North 5.8 mph - N/A   Clear
10:55 PM 32.0 °F 27.5 °F 32.0 °F 100% 29.97 in 10.0 mi North 4.6 mph - N/A   Clear
11:15 PM 32.0 °F 28.7 °F 32.0 °F 100% 29.97 in 10.0 mi NW 3.5 mph - N/A   Clear
11:35 PM 32.0 °F - 32.0 °F 100% 29.97 in 10.0 mi Calm Calm - N/A   Clear
11:40 PM 32.0 °F - 32.0 °F 100% 29.97 in 10.0 mi Calm Calm - N/A   Clear
11:55 PM 32.0 °F - 32.0 °F 100% 29.97 in 10.0 mi Calm Calm - N/A   Clear